Location: Poughquag
(41.6090°N, 73.6820°W)
Time: 12:43:41
(UTC-04:00)

Transit 2A Rocket - Pass Details

Date: 29 May 2020
Orbit: 584 x 919 km, 66.7° (Epoch: 06 July)

Event Time Altitude Azimuth Distance (km) Brightness Sun altitude
Rises 01:15:01 0° 258° (WSW) 3,110 - -26.5°
Exits shadow 01:17:24 - 273° (W) 2,410 7.5 -26.4°
Reaches altitude 10° 01:18:01 10° 278° (W) 2,261 7.4 -26.4°
Maximum altitude 01:21:32 18° 321° (NW) 1,846 7.4 -26.3°
Drops below altitude 10° 01:25:16 10° 3° (N) 2,421 8.6 -26.2°
Sets 01:28:39 0° 22° (NNE) 3,422 9.6 -26.1°
